[[{"header":{"parameterUnit":"m.s-1","parameterCategory":1,"la1":30.2991,"la2":30.254,"lo1":-89.0895,"lo2":-89.0444,"dy":0.0017,"dx":0.0017,"nx":28,"ny":28,"refTime":"2025-08-09T03:00:00:Z","depth":0,"parameterNumber":2,"parameterNumberName":"U-component_of_WINDS"},"data":[0,0,0,0,0,0,0,0,0,0,0,0,0,0,0,0,0,0,0,0,0,0,0,0,0,0,0,0,0,0,0,0,0,0,0,0,0,0,0,0,0,0,0,0,0,0,0,0,0,0,0,0,0,0,0,0,0,0,-0.3227,-0.3227,0,-0.3213,-0.3212,-0.3212,-0.3125,-0.3123,-0.3121,-0.3119,-0.3111,-0.3112,-0.3114,0,0,0,0,0,0,0,0,0,0,0,0,0,-0.3186,-0.3187,-0.3227,-0.3227,-0.3227,-0.3213,-0.3212,-0.3212,-0.3125,-0.3123,-0.312,-0.3118,-0.311,-0.3112,-0.3114,0,0,0,0,0,0,0,0,0,0,0,0,0,-0.3191,-0.3188,-0.3227,-0.3182,-0.3177,-0.3213,-0.3212,-0.3212,-0.3126,-0.3123,-0.312,-0.3117,-0.3109,-0.3112,-0.3114,-0.3194,0,0,-0.3123,-0.3124,0,0,0,0,0,0,0,0,-0.3191,-0.3193,-0.3188,-0.3185,-0.318,-0.3167,-0.3195,-0.3206,-0.3127,-0.3146,-0.3119,-0.3115,-0.3132,-0.3133,-0.3137,-0.3194,-0.3194,-0.3123,-0.3124,-0.3125,-0.3126,0,0,0,0,0,0,0,-0.3191,-0.3193,-0.3221,-0.3189,-0.3183,-0.3164,-0.3161,-0.3197,-0.3157,-0.3144,-0.3137,-0.3137,-0.313,-0.3135,-0.3137,-0.3194,-0.3123,-0.3125,-0.3127,-0.3128,-0.3317,-0.332,0,0,0,0,0,0,-0.3196,-0.3193,-0.3222,-0.3221,-0.3178,-0.3167,-0.3164,-0.3175,-0.3157,-0.3151,-0.3139,-0.3133,-0.3132,-0.3134,-0.3136,-0.323,-0.3125,-0.3128,-0.3129,-0.3314,-0.3318,-0.3322,0,0,0,0,0,0,-0.3195,-0.3199,-0.3222,-0.3205,-0.3207,-0.3171,-0.3184,-0.3176,-0.3181,-0.3153,-0.3146,-0.3152,-0.313,-0.3132,-0.318,-0.3228,-0.3129,-0.3132,-0.331,-0.3315,-0.332,-0.3417,0,0,0,0,0,0,-0.3195,-0.32,-0.3228,-0.3207,-0.3208,-0.3266,-0.3187,-0.3178,-0.3185,-0.3176,-0.3163,-0.3158,-0.3127,-0.3177,-0.3183,-0.323,-0.3134,-0.3305,-0.3312,-0.3318,-0.341,-0.3425,-0.3438,0,0,0,0,0,-0.3193,-0.3257,-0.323,-0.3234,-0.3242,-0.3268,-0.3269,-0.3231,-0.3189,-0.3219,-0.3201,-0.3158,-0.3222,-0.3183,-0.3189,-0.3237,-0.3302,-0.331,-0.3318,-0.3403,-0.3422,-0.3438,0,0,0,0,0,0,-0.3287,-0.3253,-0.3223,-0.3281,-0.3278,-0.3253,-0.3289,-0.3252,-0.3263,-0.3254,-0.3208,-0.3206,-0.3262,-0.3254,-0.3211,-0.3315,-0.3255,-0.3264,-0.3318,-0.3335,-0.3349,-0.3351,-0.3136,0,0,0,0,0,-0.3314,-0.3336,-0.3306,-0.3361,-0.336,-0.3325,-0.3335,-0.3306,-0.3302,-0.3301,-0.3286,-0.3286,-0.3306,-0.332,-0.3336,-0.3408,-0.3405,-0.3444,-0.3458,-0.347,-0.348,-0.3519,-0.3536,-0.3347,-0.3347,-0.3347,0,0,-0.3371,-0.3355,-0.3372,-0.3379,-0.3373,-0.3399,-0.3325,-0.3355,-0.3374,-0.3306,-0.335,-0.334,-0.3337,-0.3397,-0.3423,-0.3392,-0.3531,-0.348,-0.349,-0.3493,-0.3529,-0.3547,-0.3563,-0.3352,-0.3351,-0.335,0,0,-0.3488,-0.3478,-0.3522,-0.3518,-0.3509,-0.3485,-0.3496,-0.3478,-0.3467,-0.3511,-0.346,-0.3484,-0.3518,-0.3518,-0.3523,-0.3641,-0.3603,-0.3648,-0.3724,-0.3762,-0.3777,-0.379,-0.3834,-0.385,-0.3657,-0.3657,-0.3657,0,-0.3561,-0.3595,-0.3551,-0.3584,-0.3589,-0.3526,-0.3573,-0.3571,-0.357,-0.3576,-0.3541,-0.3584,-0.3577,-0.3638,-0.3666,-0.3672,-0.3685,-0.365,-0.3778,-0.3791,-0.3802,-0.3844,-0.3861,-0.3663,-0.3662,-0.3661,-0.3661,0,-0.3686,-0.3711,-0.3748,-0.3746,-0.3756,-0.3796,-0.3759,-0.3775,-0.3745,-0.3726,-0.3772,-0.3762,-0.3776,-0.3788,-0.376,-0.3845,-0.3827,-0.3786,-0.3725,-0.3827,-0.3865,-0.3881,-0.3671,-0.3669,-0.3667,-0.3666,0,0,-0.3862,-0.3835,-0.3849,-0.3848,-0.3834,-0.3854,-0.3892,-0.3904,-0.3919,-0.392,-0.3953,-0.3984,-0.3946,-0.3951,-0.3923,-0.3956,-0.4053,-0.3911,-0.3911,-0.394,-0.4149,-0.4181,-0.42,-0.4027,-0.403,-0.4032,-0.415,0,-0.3976,-0.4037,-0.3998,-0.4066,-0.409,-0.4031,-0.4065,-0.4061,-0.4045,-0.4064,-0.4047,-0.407,-0.4017,-0.402,-0.4051,-0.4035,-0.4095,-0.4025,-0.4059,-0.4061,-0.4064,-0.422,-0.4253,-0.4365,-0.4164,-0.4167,-0.4169,0,-0.4116,-0.4122,-0.4192,-0.4174,-0.4183,-0.4214,-0.4222,-0.424,-0.4236,-0.4222,-0.4228,-0.4192,-0.423,-0.4169,-0.4223,-0.4177,-0.4189,-0.4183,-0.4187,-0.419,-0.4122,-0.4229,-0.44,-0.4418,-0.4192,-0.419,-0.4188,0,-0.424,-0.4265,-0.4311,-0.4312,-0.4292,-0.4315,-0.4308,-0.43,-0.431,-0.4319,-0.4325,-0.4338,-0.4346,-0.4359,-0.4328,-0.4285,-0.4387,-0.4323,-0.4379,-0.438,-0.4404,-0.4403,-0.4581,-0.4409,-0.4409,-0.4408,-0.4408,0,-0.4372,-0.4418,-0.4366,-0.4395,-0.4445,-0.4401,-0.4453,-0.444,-0.4434,-0.4461,-0.4411,-0.4437,-0.4394,-0.4417,-0.4393,-0.4443,-0.4447,-0.4438,-0.4432,-0.4444,-0.4445,-0.4452,-0.4444,-0.4413,-0.4412,-0.4411,-0.441,0,-0.4519,-0.4486,-0.4532,-0.4509,-0.4505,-0.4543,-0.4525,-0.4551,-0.4531,-0.4566,-0.4571,-0.4541,-0.4565,-0.4535,-0.4558,-0.4542,-0.461,-0.4591,-0.4611,-0.4606,-0.4665,-0.466,-0.4855,-0.4879,-0.4689,-0.4691,-0.4693,0,-0.4606,-0.464,-0.462,-0.4633,-0.4629,-0.4651,-0.466,-0.4619,-0.4632,-0.463,-0.4657,-0.4677,-0.4691,-0.4734,-0.4715,-0.4733,-0.4715,-0.4782,-0.4718,-0.4729,-0.4719,-0.4718,-0.4722,-0.4796,-0.4798,-0.48,-0.4801,0,-0.4765,-0.4747,-0.4761,-0.4771,-0.4783,-0.4789,-0.4791,-0.4806,-0.4762,-0.4779,-0.4803,-0.4814,-0.4836,-0.4858,-0.487,-0.4865,-0.4828,-0.4822,-0.4836,-0.4849,-0.486,-0.4857,-0.4649,-0.4818,-0.4816,-0.4815,-0.4814,-0.4813,-0.4886,-0.4913,-0.4904,-0.4922,-0.4919,-0.4923,-0.4947,-0.4929,-0.4947,-0.4961,-0.4936,-0.4967,-0.4963,-0.4975,-0.4976,-0.5001,-0.4972,-0.4992,-0.4998,-0.5004,-0.5014,-0.4855,-0.5003,-0.5002,-0.5002,-0.5001,-0.5001,0,-0.5043,-0.5034,-0.5051,-0.5055,-0.5071,-0.5031,-0.5032,-0.5048,-0.5074,-0.5073,-0.5088,-0.5116,-0.5137,-0.512,-0.5137,-0.5161,-0.5145,-0.5168,-0.5166,-0.5167,-0.5037,-0.5024,-0.5181,-0.5181,-0.5181,-0.5181,-0.5181,-0.5181,-0.5127,-0.5172,-0.5154,-0.5198,-0.5189,-0.5217,-0.5221,-0.5225,-0.5224,-0.5257,-0.5273,-0.5261,-0.5254,-0.5271,-0.529,-0.5284,-0.5294,-0.5324,-0.5313,-0.5193,-0.5175,-0.5159,-0.5146,-0.5326,-0.5326,-0.544,-0.5442,-0.5442]},{"header":{"parameterUnit":"m.s-1","parameterCategory":1,"la1":30.2991,"la2":30.254,"lo1":-89.0895,"lo2":-89.0444,"dy":0.0017,"dx":0.0017,"nx":28,"ny":28,"refTime":"2025-08-09T03:00:00:Z","depth":0,"parameterNumber":3,"parameterNumberName":"V-component_of_WINDS"},"data":[0,0,0,0,0,0,0,0,0,0,0,0,0,0,0,0,0,0,0,0,0,0,0,0,0,0,0,0,0,0,0,0,0,0,0,0,0,0,0,0,0,0,0,0,0,0,0,0,0,0,0,0,0,0,0,0,0,0,1.2357,1.2357,0,1.2374,1.2374,1.2374,1.2377,1.2377,1.2377,1.2377,1.2394,1.2395,1.2395,0,0,0,0,0,0,0,0,0,0,0,0,0,1.2329,1.2329,1.2357,1.2357,1.2358,1.2374,1.2374,1.2374,1.2377,1.2377,1.2377,1.2377,1.2394,1.2395,1.2395,0,0,0,0,0,0,0,0,0,0,0,0,0,1.2343,1.2329,1.2357,1.2361,1.2362,1.2374,1.2374,1.2374,1.2377,1.2377,1.2377,1.2377,1.2394,1.2395,1.2396,1.2405,0,0,1.2398,1.2399,0,0,0,0,0,0,0,0,1.2342,1.2344,1.236,1.2361,1.2361,1.2373,1.237,1.2385,1.2377,1.2371,1.2377,1.2377,1.2387,1.2389,1.2392,1.2406,1.2407,1.2398,1.2399,1.2399,1.2399,0,0,0,0,0,0,0,1.2341,1.2343,1.2364,1.2361,1.2361,1.2362,1.2364,1.2373,1.238,1.2372,1.2372,1.2374,1.2388,1.2392,1.2393,1.2407,1.2398,1.2399,1.24,1.24,1.243,1.243,0,0,0,0,0,0,1.2339,1.2342,1.2363,1.2364,1.2351,1.2363,1.2365,1.237,1.238,1.2382,1.2374,1.2374,1.239,1.2392,1.2393,1.2406,1.2399,1.24,1.2401,1.243,1.243,1.243,0,0,0,0,0,0,1.2339,1.2341,1.2363,1.2353,1.2356,1.2364,1.2369,1.237,1.2374,1.2382,1.2383,1.2377,1.239,1.2392,1.2402,1.2406,1.24,1.2401,1.2429,1.243,1.243,1.243,0,0,0,0,0,0,1.2338,1.2341,1.2344,1.2353,1.2357,1.2371,1.2369,1.2371,1.2375,1.2376,1.2385,1.2386,1.239,1.2401,1.2403,1.2407,1.2402,1.2429,1.2429,1.243,1.2429,1.243,1.2431,0,0,0,0,0,1.2337,1.2344,1.2344,1.2347,1.2361,1.2371,1.2373,1.2377,1.2376,1.2379,1.2385,1.2386,1.2406,1.2402,1.2405,1.2409,1.2429,1.2429,1.243,1.2429,1.243,1.2431,0,0,0,0,0,0,1.2335,1.2345,1.2346,1.2356,1.2363,1.2372,1.2376,1.2378,1.2385,1.2385,1.239,1.2392,1.2402,1.2407,1.2403,1.2419,1.2417,1.2418,1.2416,1.2416,1.2417,1.2416,1.2403,0,0,0,0,0,1.2335,1.2342,1.2351,1.2359,1.2362,1.2369,1.2373,1.2376,1.2383,1.2386,1.2392,1.2399,1.2407,1.2412,1.242,1.243,1.2432,1.2435,1.2435,1.2436,1.2436,1.2443,1.2444,1.2432,1.2432,1.2432,0,0,1.2337,1.2343,1.2347,1.2359,1.2364,1.2372,1.2371,1.2379,1.2384,1.2387,1.2397,1.2402,1.241,1.2421,1.2426,1.2425,1.244,1.2437,1.2437,1.2437,1.2443,1.2445,1.2446,1.2432,1.2432,1.2432,0,0,1.2343,1.2348,1.2356,1.2361,1.237,1.2374,1.2376,1.2385,1.2389,1.2399,1.2401,1.2408,1.2421,1.2427,1.2432,1.2442,1.2443,1.2444,1.2447,1.2453,1.2454,1.2455,1.2458,1.2459,1.2445,1.2445,1.2445,0,1.2343,1.2354,1.2359,1.2367,1.2372,1.2375,1.2383,1.2388,1.2399,1.2403,1.2402,1.2419,1.2425,1.2437,1.2439,1.2443,1.2445,1.2443,1.2453,1.2454,1.2455,1.2458,1.2459,1.2445,1.2445,1.2445,1.2445,0,1.2355,1.2363,1.2367,1.2378,1.2383,1.2391,1.2397,1.2403,1.2405,1.241,1.242,1.2428,1.2437,1.244,1.2443,1.2453,1.2452,1.2452,1.245,1.2456,1.2459,1.2461,1.2445,1.2445,1.2445,1.2445,0,0,1.2359,1.2373,1.2374,1.2379,1.2389,1.2395,1.2404,1.2413,1.2417,1.2425,1.2432,1.2443,1.2444,1.2449,1.2453,1.2458,1.2465,1.2457,1.2458,1.2458,1.2477,1.2476,1.2478,1.2466,1.2467,1.2467,1.2476,0,1.2366,1.2381,1.2386,1.2398,1.2405,1.2409,1.2416,1.2423,1.2428,1.2435,1.244,1.2449,1.2448,1.2452,1.2457,1.2463,1.2469,1.2463,1.2473,1.2473,1.247,1.2479,1.2479,1.2487,1.2477,1.2477,1.2478,0,1.2376,1.2384,1.2397,1.2407,1.241,1.2416,1.2425,1.2432,1.244,1.2444,1.245,1.2453,1.2462,1.246,1.2473,1.2468,1.2473,1.2477,1.2477,1.2478,1.2475,1.248,1.249,1.2491,1.248,1.2479,1.2479,0,1.2378,1.2392,1.2401,1.2406,1.2417,1.2421,1.2426,1.2435,1.244,1.2448,1.2452,1.2461,1.2466,1.2473,1.2479,1.2477,1.2491,1.2489,1.2494,1.2494,1.2496,1.2496,1.2506,1.25,1.25,1.25,1.25,0,1.2386,1.2393,1.2402,1.2408,1.2417,1.2423,1.2431,1.2437,1.2444,1.2451,1.2455,1.2462,1.2469,1.2477,1.2482,1.2491,1.2494,1.2497,1.2498,1.2496,1.2496,1.2499,1.2498,1.25,1.25,1.25,1.25,0,1.2389,1.2395,1.2406,1.2416,1.2419,1.2425,1.2434,1.244,1.2445,1.2454,1.2456,1.2465,1.2474,1.2481,1.2493,1.2496,1.2506,1.2507,1.2503,1.2504,1.2508,1.2507,1.252,1.2522,1.2515,1.2515,1.2515,0,1.2393,1.2399,1.241,1.2415,1.242,1.2428,1.2434,1.244,1.2446,1.2456,1.2461,1.247,1.2478,1.2493,1.25,1.251,1.2511,1.2515,1.2512,1.2511,1.2511,1.251,1.2511,1.2515,1.2515,1.2515,1.2515,0,1.2399,1.2402,1.241,1.2419,1.2426,1.2434,1.2441,1.2445,1.2453,1.2459,1.2469,1.2475,1.2488,1.2497,1.2507,1.2513,1.2515,1.2516,1.2518,1.2516,1.2513,1.2514,1.2504,1.2516,1.2516,1.2516,1.2516,1.2516,1.2403,1.2409,1.2417,1.2426,1.2433,1.244,1.2446,1.2452,1.246,1.2471,1.2474,1.2484,1.2493,1.2507,1.2513,1.2521,1.252,1.2523,1.2523,1.2524,1.2523,1.2512,1.2523,1.2523,1.2523,1.2523,1.2523,0,1.241,1.2415,1.2424,1.2434,1.2441,1.2443,1.2452,1.2458,1.2466,1.2475,1.2482,1.2494,1.2503,1.2511,1.2521,1.2526,1.2528,1.2528,1.2528,1.2529,1.2523,1.2521,1.2527,1.2527,1.2527,1.2527,1.2527,1.2527,1.2414,1.2423,1.2428,1.2441,1.2447,1.2456,1.2461,1.2468,1.2474,1.2487,1.2494,1.25,1.2508,1.2519,1.2528,1.253,1.2533,1.2534,1.2536,1.253,1.253,1.2529,1.2527,1.2535,1.2535,1.2542,1.2542,1.2542]}]]